Location: Newark
(13.6797°N, 8.5297°E)
Time: 17:24:13
(UTC+00:00)

Altair - Pass Details

Date: 27 January 2020
Orbit: 1502 x 1682 km, 47.2° (Epoch: 25 February)

Event Time Altitude Azimuth Distance (km) Brightness Sun altitude
Rises 06:49:51 0° 251° (WSW) 4,798 9.7 11.9°
Reaches altitude 10° 06:53:25 10° 261° (W) 3,840 9.1 12.7°
Maximum altitude 07:01:48 31° 320° (NW) 2,585 8.4 14.6°
Drops below altitude 10° 07:10:26 10° 19° (NNE) 3,930 9.6 16.5°
Sets 07:14:12 0° 30° (NNE) 4,927 10.2 17.3°
